Location: C�an Torras
(41.5052°N, 1.9280°E)
Time: 21:12:49
(UTC+00:00)

Hubble Space Telescope - Pass Details

Date: 20 January 2021
Orbit: 535 x 539 km, 28.5° (Epoch: 03 March)

Event Time Altitude Azimuth Distance (km) Brightness Sun altitude
Rises 18:00:38 0° 224° (SW) 2,671 5.4 -12.6°
Reaches altitude 10° 18:04:23 10° 189° (S) 1,782 3.7 -13.2°
Maximum altitude 18:05:42 11° 171° (S) 1,701 3.4 -13.5°
Drops below altitude 10° 18:07:00 10° 152° (SSE) 1,783 3.3 -13.7°
Enters shadow 18:08:38 - 133° (SE) 2,081 3.5 -14.0°
